Hourly Data Report for September 23, 2017

All times are specified in Local Standard Time (LST). Add 1 hour to adjust for Daylight Saving Time where and when it is observed.

KITCHENER/WATERLOO
ONTARIO

43°27'39.000" N
80°22'43.000" W
321.60 m
6144239
71368
YKF

Download Data

Hourly Data (September 2017)
Hourly Data Report for September 23, 2017
Temp Definition
°C
Dew Point Temp Definition
°C
Rel Hum Definition
%
Wind Dir Definition
10's deg

Wind Spd Definition
km/h
Visibility Definition
km
Stn Press Definition
kPa
Hmdx Definition


Wind Chill Definition


Weather Definition


TIME
00:00 Legend Double Dagger 14.6 13.7 94 1 4 16.1 98.16     LegendNANA
01:00 Legend Double Dagger 14.1 13.0 93 LegendMM 4 16.1 98.16     LegendNANA
02:00 Legend Double Dagger 14.5 13.2 92 LegendMM 4 16.1 98.07     LegendNANA
03:00 Legend Double Dagger 15.4 13.9 91 32 4 16.1 98.11     LegendNANA
04:00 Legend Double Dagger 14.1 13.6 97   0 11.3 98.11     LegendNANA
05:00 Legend Double Dagger 13.6 13.1 97 5 4 9.7 98.16     Fog
06:00 Legend Double Dagger 13.9 13.8 99   0 4.8 98.24     Fog
07:00 Legend Double Dagger 15.3 14.5 95   0 9.7 98.30     Fog
08:00 Legend Double Dagger 19.4 15.7 79   0 16.1 98.31     LegendNANA
09:00 Legend Double Dagger 22.9 16.9 69   0 16.1 98.33 28   LegendNANA
10:00 Legend Double Dagger 27.3 13.6 42 28 15 16.1 98.33 30   LegendNANA
11:00 Legend Double Dagger 28.3 14.4 42 27 17 16.1 98.35 32   LegendNANA
12:00 Legend Double Dagger 28.8 14.6 41 28 13 16.1 98.33 33   LegendNANA
13:00 Legend Double Dagger 30.4 15.9 41 26 13 16.1 98.29 35   LegendNANA
14:00 Legend Double Dagger 29.7 16.1 43 30 18 16.1 98.27 34   LegendNANA
15:00 Legend Double Dagger 30.0 17.2 45 31 15 16.1 98.21 35   LegendNANA
16:00 Legend Double Dagger 29.8 18.2 49 32 8 16.1 98.17 36   LegendNANA
17:00 Legend Double Dagger 28.5 19.0 56 29 9 16.1 98.17 35   LegendNANA
18:00 Legend Double Dagger 25.2 19.4 70 33 4 16.1 98.18 32   LegendNANA
19:00 Legend Double Dagger 21.3 19.6 90   0 16.1 98.21 29   LegendNANA
20:00 Legend Double Dagger 19.8 18.9 94   0 16.1 98.21     LegendNANA
21:00 Legend Double Dagger 18.7 17.8 94 33 5 16.1 98.21     LegendNANA
22:00 Legend Double Dagger 18.6 18.1 97 35 4 11.3 98.23     LegendNANA
23:00 Legend Double Dagger 17.8 17.3 97   0 4.8 98.24     Fog

Notes on Data Quality.

Legend

  • E = Estimated
  • M = Missing
  • NA = Not Available
  • ‡ = Partner data that is not subject to review by the National Climate Archives
Date modified: